Regional Weather Roundup
Issued by NWS

Home | Current Version | Previous Version | Text Only | Print | Product List | Glossary On
Versions: 1 2 3 4 5 6 7 8 9 10 11 12 13 14 15 16 17 18 19 20 21 22 23 24 25 26 27 28 29 30 31 32 33 34 35 36 37 38 39 40 41 42 43 44 45 46 47 48 49 50
000
ASUS43 KIND 022309
RWRIN

WEATHER ROUNDUP FOR INDIANA
NATIONAL WEATHER SERVICE INDIANAPOLIS IN
700 PM EDT THU JUL 02 2015

NOTE: "FAIR" INDICATES FEW OR NO CLOUDS BELOW 12,000 FEET WITH NO
SIGNIFICANT WEATHER AND/OR OBSTRUCTIONS TO VISIBILITY.

* - STATION DOES NOT REPORT WEATHER SUCH AS PRECIPITATION OR FOG.

+ - STATION NOT QUALITY CONTROLLED BY THE NATIONAL WEATHER SERVICE.
    USE DATA WITH CAUTION...ESPECIALLY DEWPOINT AND RELATIVE
    HUMIDITY OBSERVATIONS.

INZ001>003-010>013-019-020-030000-
NORTHWEST INDIANA

CITY           SKY/WX    TMP DP  RH WIND       PRES   REMARKS
GARY /AIRPORT/ PTSUNNY   64  57  77 N14       29.98S
KNOX *+        MOSUNNY   73  54  49 E8        29.93F
LA PORTE +     MOSUNNY   74  56  52 E6        29.95F
MICHIGAN CITY+ MOSUNNY   64  57  77 N9G16     29.96F
MONTICELLO +   PTSUNNY   75  61  61 NE7       29.91S
RENSSELAER +   MOSUNNY   73  55  53 NE7       29.93S
VALPARAISO     MOSUNNY   69  60  73 N10       29.95F

$$

LMZ046-743>745-030000-
SOUTHERN LAKE MICHIGAN

STATION/POSITION TIME  TEMP    WIND        PRES    WAVE
                       AIR SEA DIR/SP/G            HT
                 (UTC) (F)     (DEG/KT/KT) (MB)    (FT)
BURNS HARBOR     2300   61      20/ 12/ 14 1015.2S
MICHIGAN CITY    2300   62      20/ 19/ 22   N/A
5NW MICH CITY    2300   63 64   40/ 16/ 21   N/A     5

$$

INZ004-005-014>016-021>024-030000-
NORTH CENTRAL INDIANA

CITY           SKY/WX    TMP DP  RH WIND       PRES   REMARKS
ELKHART        MOSUNNY   73  52  46 E8        29.86F
GOSHEN         MOSUNNY   73  55  53 NE7       29.95F
LOGANSPORT +   PTSUNNY   73  55  53 NE3       29.92S
PERU/GRISSOM   PTSUNNY   75  62  63 NE9       29.91S
ROCHESTER +    MOSUNNY   77  55  47 NE8       29.93S
SOUTH BEND     MOSUNNY   73  53  49 NE7       29.96S
WARSAW +         N/A     72  55  56 E8        29.94S

$$

INZ006>009-017-018-025>027-030000-
NORTHEAST INDIANA

CITY           SKY/WX    TMP DP  RH WIND       PRES   REMARKS
ANGOLA *+        N/A     72  64  78 E7        29.96F
AUBURN +       FAIR      72  54  53 NE6       29.95F
FORT WAYNE     PTSUNNY   74  56  53 E13       29.93F
HUNTINGTON +   MOSUNNY   73  58  57 NE8       29.92F

$$

INZ028-029-035-036-043>045-051>053-030000-
WEST CENTRAL INDIANA

CITY           SKY/WX    TMP DP  RH WIND       PRES   REMARKS
CRAWFORDSVL +  PTSUNNY   73  60  62 N8        29.89S
GREENCASTLE +  PTSUNNY   75  61  60 E5        29.88S
LAFAYETTE      PTSUNNY   74  62  66 NE10      29.89F
TERRE HAUTE    CLOUDY    78  67  68 NE3       29.86F

$$

INZ030>032-037>040-046>048-054>057-064-065-030000-
CENTRAL INDIANA

CITY           SKY/WX    TMP DP  RH WIND       PRES   REMARKS
CP ATTERBURY + PTSUNNY   77  64  65 NE8       29.87F
FISHERS *+     PTSUNNY   73  66  78 NE8       29.89S
FRANKFORT +    MOSUNNY   76  65  69 NE9       29.92S
GREENWOOD *+   CLOUDY    77  61  57 NE8       29.88S
INDIANAPOLIS   PTSUNNY   77  62  59 E12       29.86S
-EAGLE CREEK   MOSUNNY   77  63  61 NE8       29.87F
KOKOMO *+      MOSUNNY   73  63  68 E10       29.91S
MARION +       PTSUNNY   73  60  63 E9        29.93R
MT COMFORT *+  MOSUNNY   75  57  53 NE12      29.90R
SHELBYVILLE    PTSUNNY   77  65  66 E10       29.88R
ZIONSVILLE +   MOSUNNY   76  61  59 NE9       29.90S

$$

INZ033-034-041-042-049-050-058-059-030000-
EAST CENTRAL INDIANA

CITY           SKY/WX    TMP DP  RH WIND       PRES   REMARKS
MUNCIE         MOSUNNY   75  63  66 NE14      29.91S

$$

INZ060-061-067>069-081>083-085>088-030000-
SOUTHWEST INDIANA

CITY           SKY/WX    TMP DP  RH WIND       PRES   REMARKS
EVANSVILLE     CLOUDY    77  70  79 N9        29.84S
HUNTINGBURG *+ CLOUDY    73  70  88 N6        29.85F
WASHINGTON +   CLOUDY    76  69  77 N6        29.84F

$$

INZ062-063-066-070>080-084-089>092-030000-
SOUTH CENTRAL AND SOUTHEAST INDIANA

CITY           SKY/WX    TMP DP  RH WIND       PRES   REMARKS
BLOOMINGTON    PTSUNNY   78  67  68 NE8       29.87S
MADISON *+     CLOUDY    72  68  88 SE6       29.89S
NORTH VERNON + PTSUNNY   77  68  73 E6        29.88R
SEYMOUR +      PTSUNNY   77  70  78 E5        29.85S

$$




USA.gov is the U.S. government's official web portal to all federal, state and local government web resources and services.